Flag for U.S.A. Weather past 2 weeks in Fort Myers, Florida, U.S.A.

Now
77 °F

Clear.


Feels Like: 78 °F
Forecast: 75 / 91 °F
Wind: 5 mph from Northeast

Location: Page Field

Current Time: Jul 4, 2015 at 11:01:40 PM

Latest Report: Jul 4, 2015 at 9:53 PM


Visibility: 8 mi

Pressure: 30.11 "Hg

Humidity: 90%

Dew point: 74 °F

Location of Fort MyersLocation

Historic Weather in Fort Myers — Graph

°F

Fort Myers temperature yesterday

Maximum temperature yesterday: 93 °F (at 2:53 PM)
Minimum temperature yesterday: 73 °F (at 6:53 AM)
Average temperature yesterday: 80 °F

Past Weeks' High & Low Weather Summary

 TemperatureHumidityPressure
High95 °F (Jun 21, 2:53 PM)100% (Jun 25, 3:53 AM)30.16 "Hg (Jun 25, 3:53 AM)
Low73 °F (Jun 26, 2:53 AM)40% (Jul 1, 1:53 PM)30.01 "Hg (Jun 28, 3:53 AM)
Average82 °F77%30.09 "Hg
* Reported Jun 19 9:53 PM — Jul 4 9:53 PM, Fort Myers, Weather by CustomWeather, © 2015

Note: Actual official high and low records may vary slightly from our data, if they occured in-between our weather recording intervals... More about our weather records

Advertising

Fort Myers weather history for previous 24 hours

 ConditionsComfort  
Time TempWeatherWind HumidityBarometerVisibility
9:53 PM
Sat, Jul 4
77 °FClear.5 mph90%30.11 "Hg8 mi
8:53 PM77 °FSunny.5 mph88%30.09 "Hg10 mi
7:53 PM78 °FSunny.No wind84%30.09 "Hg10 mi
6:53 PM75 °FLight rain. Broken clouds.6 mph88%30.08 "Hg10 mi
5:53 PM73 °FStrong thunderstorms. Fog.21 mph94%30.10 "Hg1 mi
4:53 PM94 °FThundershowers. Scattered clouds.7 mph49%30.04 "Hg10 mi
3:53 PM92 °FPassing clouds.5 mph56%30.05 "Hg10 mi
2:53 PM92 °FScattered clouds.5 mph52%30.08 "Hg10 mi
1:53 PM92 °FPassing clouds.8 mph56%30.10 "Hg10 mi
12:53 PM89 °FPassing clouds.6 mph59%30.12 "Hg10 mi
11:53 AM88 °FSunny.3 mph63%30.13 "Hg10 mi
10:53 AM85 °FSunny.7 mph72%30.13 "Hg10 mi
9:53 AM82 °FSunny.5 mph82%30.12 "Hg10 mi
8:53 AM79 °FSunny.7 mph88%30.12 "Hg10 mi
7:53 AM75 °FSunny.5 mph96%30.11 "Hg7 mi
6:53 AM73 °FFog.3 mph97%30.09 "Hg6 mi
5:53 AM73 °FClear.3 mph97%30.09 "Hg10 mi
4:53 AM73 °FClear.No wind97%30.07 "Hg10 mi
3:53 AM73 °FClear.3 mph97%30.06 "Hg10 mi
2:53 AM73 °FClear.No wind100%30.07 "Hg10 mi
1:53 AM74 °FClear.No wind94%30.09 "Hg10 mi
12:53 AM74 °FClear.3 mph97%30.11 "Hg10 mi
11:53 PM
Fri, Jul 3
74 °FClear.3 mph97%30.11 "Hg10 mi
Weather by CustomWeather, © 2015

See weather overviewHow to use our weather pages